sat.trackr.live / text

‹ back to catalog

MMS 3

NORAD 40484 · 2015-011C

PAYLOAD ACTIVE UNKNOWN

§ Identity

Operator
Country
US
Launch date
2015-03-13
Launch site
AFETR
Launch vehicle
Mass (kg)
RCS (m²)
2.66

Purposes: science

External: N2YO · Heavens-Above · Gunter

§ Orbital elements

Epoch: 2026-05-25T06:00:02.000160Z

Period
5,079.72 min
Inclination
71.8201°
Eccentricity
0.8340309
Mean motion
0.28348023 rev/d
Perigee alt
9,867.9 km
Apogee alt
173,147.6 km
Semi-major
97,885.9 km
B*
0.0000e+0
RAAN
349.1137°
Arg perigee
166.9235°
Mean anomaly
118.6871°
Rev number
137

§ Raw data

MMS 31 40484U 15011C   26145.25002315 -.00000131  00000+0  00000+0 0  99982 40484  71.8201 349.1137 8340309 166.9235 118.6871  0.28348023  1371

JSON: /api/v1/satellites/40484 · /tle

For live sub-satellite position, see the globe view (requires WebGL).

§ Visibility from observer

Set your observer location to see the next 7 days of passes ≥ 10°. The values pass through the URL so the page stays shareable.

No JS? Fill the form by hand. The geolocation button needs JavaScript.